This is the latest recevied weather packets stored in our database for station/object N3DOU-1. If no packets are shown the sender has not sent any weather packets the latest 10 day(s).
| Time | Temp. | Humidity | Pressure | Rain* | Wind** | Luminosity | Snow |
|---|---|---|---|---|---|---|---|
| 1777722083 | 10.56° C | 70% | 1013.9 hPa | 0 mm | - | - | - |
| 1777721183 | 10.56° C | 69% | 1013.6 hPa | 0 mm | - | - | - |
| 1777720285 | 10.56° C | 69% | 1013.5 hPa | 0 mm | - | - | - |
| 1777719383 | 10.56° C | 67% | 1013.5 hPa | 0 mm | - | - | - |
| 1777718484 | 10.56° C | 66% | 1013.5 hPa | 0 mm | - | - | - |
| 1777717584 | 11.11° C | 66% | 1013.3 hPa | 0 mm | - | - | - |
| 1777716684 | 11.11° C | 66% | 1013.1 hPa | 0 mm | - | - | - |
| 1777715783 | 11.11° C | 67% | 1012.6 hPa | 0 mm | - | - | - |
| 1777714883 | 11.67° C | 68% | 1012.4 hPa | 0 mm | - | - | - |
| 1777713983 | 11.67° C | 68% | 1012.4 hPa | 0 mm | - | - | - |
| 1777713084 | 12.22° C | 70% | 1012.4 hPa | 0 mm | - | - | - |
| 1777712184 | 12.22° C | 70% | 1012.4 hPa | 0 mm | - | - | - |
| 1777711286 | 12.22° C | 74% | 1012.3 hPa | 0 mm | - | - | - |
| 1777710385 | 12.22° C | 75% | 1012.3 hPa | 0 mm | - | - | - |
| 1777709485 | 11.67° C | 78% | 1012.4 hPa | 0 mm | - | - | - |
| 1777708584 | 11.67° C | 77% | 1012.3 hPa | 0 mm | - | - | - |
| 1777707684 | 11.67° C | 76% | 1012.2 hPa | 0 mm | - | - | - |
| 1777706783 | 12.22° C | 76% | 1012.2 hPa | 0 mm | - | - | - |
| 1777705884 | 12.22° C | 76% | 1012 hPa | 0 mm | - | - | - |
| 1777704984 | 11.67° C | 78% | 1012.1 hPa | 0 mm | - | - | - |
| 1777704084 | 11.67° C | 80% | 1012.1 hPa | 0 mm | - | - | - |
| 1777702283 | 11.67° C | 80% | 1012.3 hPa | 0 mm | - | - | - |
| 1777700483 | 11.67° C | 79% | 1012.4 hPa | 0 mm | - | - | - |
| 1777699583 | 11.67° C | 79% | 1012.4 hPa | 0 mm | - | - | - |
| 1777697784 | 12.22° C | 77% | 1012.9 hPa | 0 mm | - | - | - |
* Rain latest hour (hover to see other rain measurements)
** Current wind speed in m/s (hover to see current wind gust speed)